{"data":{"norad_id":58156,"intl_designator":"2023-166G","name":"STARLINK-30784","alt_names":[],"object_type":"PAYLOAD","status":"ACTIVE","operator":null,"country":"US","launch_date":"2023-10-29","launch_site_code":"AFWTR","launch_vehicle":null,"mission":null,"orbit_class":"UNKNOWN","rcs_meters":null,"size_class":null,"mass_kg":null,"dimensions":null,"purposes":["comms"],"wikipedia_slug":null,"has_3d_model":false,"image_url":null,"decayed_at":null,"tle_current":{"epoch":"2026-09-20T13:15:50.663808Z","epoch_age_seconds":135937,"freshness":"FRESH","line1":"1 58156U 23166G   26263.55266972 -.00003956  00000+0 -10613-3 0  9992","line2":"2 58156  53.1603  33.7818 0000859  77.4755 282.6343 15.34365920162872","mean_motion":15.3436592,"eccentricity":8.59e-5,"inclination_deg":53.1603,"raan_deg":33.7818,"arg_perigee_deg":77.4755,"mean_anomaly_deg":282.6343,"bstar":-0.00010613,"rev_number":16287,"period_min":93.849842546034,"perigee_km":462.21689814614,"apogee_km":463.39217190185,"semimajor_km":6840.941535024,"source":"CELESTRAK","updated_at":"2026-09-21T09:00:33.796786Z"}}}